[[{"header":{"parameterUnit":"m.s-1","parameterCategory":1,"la1":30.2991,"la2":30.254,"lo1":-89.0895,"lo2":-89.0444,"dy":0.0017,"dx":0.0017,"nx":28,"ny":28,"refTime":"2023-05-26T21:00:00:Z","depth":0,"parameterNumber":2,"parameterNumberName":"U-component_of_WINDS"},"data":[0,0,0,0,0,0,0,0,0,0,0,0,0,0,0,0,0,0,0,0,0,0,0,0,0,0,0,0,0,0,0,0,0,0,0,0,0,0,0,0,0,0,0,0,0,0,0,0,0,0,0,0,0,0,0,0,0,0,-1.9315,-1.9314,0,-1.9285,-1.9285,-1.9284,-1.9248,-1.9247,-1.9247,-1.9246,-1.9216,-1.9216,-1.9215,0,0,0,0,0,0,0,0,0,0,0,0,0,-1.9341,-1.934,-1.9315,-1.9314,-1.9314,-1.9285,-1.9285,-1.9284,-1.9248,-1.9247,-1.9247,-1.9246,-1.9216,-1.9216,-1.9215,0,0,0,0,0,0,0,0,0,0,0,0,0,-1.9322,-1.934,-1.9315,-1.9292,-1.929,-1.9285,-1.9285,-1.9284,-1.9248,-1.9247,-1.9246,-1.9246,-1.9216,-1.9216,-1.9215,-1.923,0,0,-1.9214,-1.9214,0,0,0,0,0,0,0,0,-1.9323,-1.9321,-1.9296,-1.9294,-1.9291,-1.9269,-1.9283,-1.9266,-1.9248,-1.9264,-1.9246,-1.9245,-1.9234,-1.9232,-1.9229,-1.9229,-1.9228,-1.9214,-1.9214,-1.9214,-1.9214,0,0,0,0,0,0,0,-1.9324,-1.9322,-1.9303,-1.9296,-1.9293,-1.9284,-1.928,-1.9279,-1.9254,-1.9263,-1.926,-1.9257,-1.9233,-1.9229,-1.9228,-1.9227,-1.9214,-1.9214,-1.9214,-1.9213,-1.924,-1.9241,0,0,0,0,0,0,-1.9329,-1.9324,-1.9304,-1.9302,-1.9305,-1.9284,-1.928,-1.9277,-1.9254,-1.925,-1.9258,-1.9255,-1.923,-1.9228,-1.9227,-1.9244,-1.9214,-1.9213,-1.9213,-1.9239,-1.924,-1.9241,0,0,0,0,0,0,-1.933,-1.9328,-1.9305,-1.9312,-1.9309,-1.9285,-1.9282,-1.9277,-1.9273,-1.9251,-1.9246,-1.9258,-1.923,-1.9227,-1.923,-1.9242,-1.9213,-1.9213,-1.9238,-1.9239,-1.9241,-1.9278,0,0,0,0,0,0,-1.9331,-1.9328,-1.9333,-1.9312,-1.9308,-1.9309,-1.9282,-1.9277,-1.9273,-1.9269,-1.925,-1.9246,-1.9229,-1.9231,-1.923,-1.9241,-1.9212,-1.9237,-1.9239,-1.924,-1.9276,-1.9281,-1.9285,0,0,0,0,0,-1.9332,-1.9345,-1.9334,-1.9332,-1.9314,-1.931,-1.9307,-1.9287,-1.9274,-1.9279,-1.9265,-1.9247,-1.9241,-1.9231,-1.923,-1.9242,-1.9236,-1.9238,-1.924,-1.9274,-1.928,-1.9285,0,0,0,0,0,0,-1.9367,-1.9341,-1.9329,-1.9335,-1.9325,-1.9303,-1.9309,-1.9294,-1.9287,-1.9284,-1.9259,-1.9255,-1.9261,-1.9251,-1.9241,-1.9256,-1.9236,-1.9238,-1.9262,-1.9268,-1.9272,-1.9275,-1.9212,0,0,0,0,0,-1.9376,-1.9374,-1.9352,-1.9359,-1.9355,-1.9333,-1.933,-1.9316,-1.9304,-1.9299,-1.9285,-1.9274,-1.927,-1.9268,-1.9263,-1.9274,-1.927,-1.9281,-1.9286,-1.929,-1.9292,-1.9299,-1.9304,-1.9248,-1.9248,-1.9248,0,0,-1.9393,-1.9379,-1.9379,-1.9366,-1.9356,-1.9356,-1.933,-1.933,-1.9329,-1.9299,-1.9302,-1.9291,-1.9277,-1.9285,-1.9287,-1.9277,-1.9307,-1.9292,-1.9296,-1.9296,-1.9301,-1.9307,-1.9312,-1.925,-1.9249,-1.9249,0,0,-1.9425,-1.9414,-1.942,-1.9411,-1.9397,-1.9382,-1.9384,-1.9365,-1.9357,-1.9359,-1.9337,-1.9336,-1.9329,-1.9321,-1.9316,-1.9347,-1.9331,-1.9346,-1.937,-1.9377,-1.9381,-1.9385,-1.9398,-1.9402,-1.9348,-1.9348,-1.9348,0,-1.9449,-1.9447,-1.9425,-1.9427,-1.9422,-1.9396,-1.9402,-1.9395,-1.9379,-1.9377,-1.9366,-1.9358,-1.9347,-1.9353,-1.936,-1.9357,-1.9359,-1.9348,-1.9382,-1.9386,-1.9389,-1.9401,-1.9405,-1.935,-1.935,-1.935,-1.9349,0,-1.9477,-1.9476,-1.9483,-1.947,-1.9466,-1.947,-1.945,-1.9448,-1.9435,-1.9422,-1.9425,-1.9411,-1.9403,-1.9403,-1.9389,-1.9408,-1.9402,-1.9387,-1.9367,-1.9397,-1.9408,-1.9412,-1.9353,-1.9352,-1.9352,-1.9351,0,0,-1.953,-1.9506,-1.9509,-1.9503,-1.9486,-1.9485,-1.9489,-1.9482,-1.9482,-1.9472,-1.9476,-1.9471,-1.9457,-1.9452,-1.9437,-1.9443,-1.947,-1.9427,-1.9426,-1.9437,-1.9492,-1.9504,-1.951,-1.9459,-1.946,-1.946,-1.9493,0,-1.956,-1.9565,-1.9546,-1.9556,-1.9556,-1.9531,-1.9534,-1.9525,-1.9513,-1.9511,-1.9498,-1.9496,-1.9477,-1.9474,-1.9479,-1.9466,-1.9481,-1.9463,-1.9463,-1.9463,-1.9468,-1.9515,-1.9528,-1.9559,-1.9497,-1.9498,-1.9498,0,-1.9595,-1.9589,-1.9599,-1.9583,-1.9582,-1.9585,-1.9578,-1.9577,-1.9566,-1.9557,-1.9552,-1.9535,-1.9538,-1.9518,-1.9523,-1.9511,-1.951,-1.9504,-1.9505,-1.9504,-1.9483,-1.9517,-1.9569,-1.9574,-1.9504,-1.9504,-1.9503,0,-1.9635,-1.9628,-1.9634,-1.963,-1.9611,-1.9614,-1.9606,-1.9594,-1.9592,-1.9586,-1.9584,-1.9578,-1.9575,-1.9572,-1.9554,-1.9541,-1.9562,-1.954,-1.9556,-1.9556,-1.9561,-1.9562,-1.9615,-1.9559,-1.9559,-1.9559,-1.9559,0,-1.967,-1.9678,-1.9652,-1.9655,-1.9663,-1.9642,-1.9651,-1.964,-1.963,-1.9632,-1.961,-1.9612,-1.9588,-1.9588,-1.9574,-1.9582,-1.958,-1.9574,-1.957,-1.9577,-1.9578,-1.9576,-1.9574,-1.956,-1.956,-1.956,-1.9559,0,-1.9716,-1.9699,-1.9703,-1.9686,-1.9681,-1.9688,-1.9673,-1.9676,-1.9664,-1.9666,-1.9666,-1.9646,-1.9645,-1.9627,-1.9622,-1.9612,-1.9626,-1.9617,-1.963,-1.9627,-1.9644,-1.9644,-1.97,-1.9706,-1.9645,-1.9646,-1.9646,0,-1.974,-1.9746,-1.9729,-1.9729,-1.9722,-1.9722,-1.972,-1.9699,-1.9698,-1.9687,-1.9691,-1.9688,-1.9685,-1.9685,-1.967,-1.9667,-1.9659,-1.9679,-1.9658,-1.9665,-1.9661,-1.9661,-1.9663,-1.9683,-1.9684,-1.9685,-1.9685,0,-1.9786,-1.9778,-1.9775,-1.977,-1.9768,-1.9763,-1.9757,-1.9758,-1.9735,-1.9735,-1.9734,-1.9732,-1.9727,-1.9725,-1.9719,-1.9711,-1.9695,-1.9692,-1.9696,-1.9702,-1.971,-1.9708,-1.9643,-1.9691,-1.969,-1.969,-1.969,-1.9689,-1.9823,-1.9827,-1.9817,-1.9815,-1.9808,-1.9803,-1.9806,-1.9794,-1.9792,-1.9787,-1.9775,-1.9776,-1.9767,-1.9757,-1.9751,-1.9753,-1.9742,-1.9747,-1.9749,-1.9751,-1.9755,-1.9709,-1.9751,-1.9751,-1.9751,-1.9751,-1.9751,0,-1.9869,-1.9861,-1.986,-1.9852,-1.9851,-1.9836,-1.9828,-1.9829,-1.983,-1.9823,-1.982,-1.982,-1.9818,-1.9804,-1.9801,-1.9805,-1.9798,-1.9805,-1.9805,-1.9804,-1.9763,-1.9761,-1.9811,-1.9811,-1.9811,-1.9811,-1.9811,-1.9811,-1.9892,-1.99,-1.989,-1.9894,-1.9886,-1.9887,-1.9885,-1.9881,-1.9874,-1.9875,-1.9874,-1.9865,-1.9855,-1.9851,-1.985,-1.9846,-1.9846,-1.9856,-1.985,-1.9812,-1.9807,-1.9801,-1.9799,-1.9856,-1.9857,-1.9891,-1.9892,-1.9892]},{"header":{"parameterUnit":"m.s-1","parameterCategory":1,"la1":30.2991,"la2":30.254,"lo1":-89.0895,"lo2":-89.0444,"dy":0.0017,"dx":0.0017,"nx":28,"ny":28,"refTime":"2023-05-26T21:00:00:Z","depth":0,"parameterNumber":3,"parameterNumberName":"V-component_of_WINDS"},"data":[0,0,0,0,0,0,0,0,0,0,0,0,0,0,0,0,0,0,0,0,0,0,0,0,0,0,0,0,0,0,0,0,0,0,0,0,0,0,0,0,0,0,0,0,0,0,0,0,0,0,0,0,0,0,0,0,0,0,-1.2273,-1.2273,0,-1.2248,-1.2248,-1.2248,-1.226,-1.226,-1.2261,-1.2261,-1.2236,-1.2235,-1.2233,0,0,0,0,0,0,0,0,0,0,0,0,0,-1.2332,-1.2331,-1.2273,-1.2273,-1.2272,-1.2248,-1.2248,-1.2247,-1.2259,-1.226,-1.2261,-1.2262,-1.2236,-1.2235,-1.2233,0,0,0,0,0,0,0,0,0,0,0,0,0,-1.2307,-1.233,-1.2273,-1.2275,-1.2275,-1.2248,-1.2248,-1.2247,-1.2259,-1.226,-1.2261,-1.2262,-1.2237,-1.2235,-1.2233,-1.2202,0,0,-1.2227,-1.2226,0,0,0,0,0,0,0,0,-1.2308,-1.2304,-1.2275,-1.2275,-1.2275,-1.2258,-1.2259,-1.2232,-1.2259,-1.2265,-1.2261,-1.2263,-1.2242,-1.224,-1.2233,-1.2201,-1.22,-1.2227,-1.2226,-1.2225,-1.2224,0,0,0,0,0,0,0,-1.231,-1.2305,-1.2263,-1.2275,-1.2275,-1.2278,-1.2276,-1.2254,-1.2249,-1.2265,-1.2266,-1.2263,-1.2242,-1.2235,-1.2233,-1.2199,-1.2227,-1.2225,-1.2224,-1.2223,-1.2143,-1.2142,0,0,0,0,0,0,-1.2311,-1.2307,-1.2264,-1.2262,-1.2294,-1.2276,-1.2273,-1.2262,-1.2249,-1.2248,-1.2262,-1.2263,-1.2238,-1.2235,-1.2232,-1.2197,-1.2225,-1.2223,-1.2222,-1.2144,-1.2143,-1.2142,0,0,0,0,0,0,-1.2312,-1.2307,-1.2265,-1.2285,-1.228,-1.2274,-1.2262,-1.2261,-1.2254,-1.2247,-1.2246,-1.2255,-1.2239,-1.2235,-1.221,-1.2196,-1.2222,-1.2221,-1.2145,-1.2144,-1.2143,-1.2126,0,0,0,0,0,0,-1.2314,-1.2308,-1.2295,-1.2284,-1.2279,-1.2243,-1.2261,-1.226,-1.2251,-1.2252,-1.224,-1.2239,-1.2239,-1.2213,-1.2208,-1.2194,-1.2219,-1.2147,-1.2145,-1.2143,-1.2128,-1.2124,-1.2121,0,0,0,0,0,-1.2316,-1.2291,-1.2295,-1.2289,-1.2263,-1.2242,-1.2239,-1.2239,-1.225,-1.2238,-1.2233,-1.224,-1.2198,-1.221,-1.2205,-1.219,-1.2148,-1.2145,-1.2143,-1.2129,-1.2125,-1.2121,0,0,0,0,0,0,-1.2299,-1.2289,-1.2293,-1.2264,-1.2254,-1.2244,-1.2229,-1.2234,-1.222,-1.2223,-1.2223,-1.2221,-1.2196,-1.219,-1.2204,-1.2161,-1.2175,-1.2171,-1.2166,-1.2161,-1.2158,-1.2161,-1.2217,0,0,0,0,0,-1.2292,-1.2276,-1.2268,-1.2243,-1.2238,-1.2234,-1.2225,-1.2226,-1.2216,-1.2212,-1.2205,-1.2195,-1.218,-1.217,-1.2156,-1.2127,-1.2125,-1.2114,-1.2111,-1.2108,-1.2105,-1.2092,-1.2088,-1.2135,-1.2135,-1.2135,0,0,-1.2277,-1.227,-1.2259,-1.2239,-1.2232,-1.2216,-1.223,-1.2212,-1.2201,-1.2209,-1.2186,-1.2181,-1.217,-1.2144,-1.2132,-1.2138,-1.2092,-1.2105,-1.2103,-1.2102,-1.209,-1.2085,-1.2081,-1.2133,-1.2134,-1.2134,0,0,-1.2243,-1.2234,-1.2214,-1.2206,-1.2195,-1.2193,-1.2188,-1.2178,-1.2176,-1.2153,-1.216,-1.2146,-1.2119,-1.2112,-1.2105,-1.207,-1.2076,-1.2065,-1.2048,-1.2035,-1.2031,-1.2028,-1.2018,-1.2014,-1.2062,-1.2062,-1.2062,0,-1.2226,-1.2201,-1.2202,-1.2185,-1.2176,-1.2184,-1.2164,-1.2156,-1.2141,-1.2135,-1.2143,-1.2112,-1.2104,-1.2078,-1.207,-1.2063,-1.2059,-1.2067,-1.2032,-1.2028,-1.2025,-1.2016,-1.2011,-1.2061,-1.2061,-1.2061,-1.2061,0,-1.2183,-1.2166,-1.215,-1.2137,-1.2127,-1.2107,-1.2107,-1.2096,-1.2099,-1.2097,-1.2075,-1.2066,-1.2052,-1.2045,-1.2047,-1.202,-1.2024,-1.2032,-1.2046,-1.202,-1.2011,-1.2007,-1.206,-1.206,-1.206,-1.206,0,0,-1.2136,-1.2124,-1.2119,-1.2114,-1.2103,-1.2091,-1.2073,-1.2059,-1.2051,-1.204,-1.2027,-1.2005,-1.2013,-1.2004,-1.2005,-1.1994,-1.197,-1.2003,-1.2003,-1.1999,-1.1942,-1.1938,-1.1933,-1.1973,-1.1972,-1.1972,-1.1943,0,-1.2102,-1.2072,-1.2073,-1.2044,-1.203,-1.2038,-1.2023,-1.2015,-1.2013,-1.2001,-1.1998,-1.1984,-1.1993,-1.1989,-1.1978,-1.1975,-1.1959,-1.1977,-1.1962,-1.1961,-1.1966,-1.1928,-1.1923,-1.1897,-1.194,-1.1939,-1.1939,0,-1.2059,-1.2048,-1.2019,-1.2012,-1.2006,-1.1993,-1.1982,-1.197,-1.1961,-1.1961,-1.1953,-1.1956,-1.1939,-1.1953,-1.1931,-1.1943,-1.1937,-1.1935,-1.1934,-1.1934,-1.1949,-1.1929,-1.1888,-1.1885,-1.1933,-1.1933,-1.1933,0,-1.2031,-1.2009,-1.199,-1.1985,-1.1976,-1.1966,-1.1962,-1.1955,-1.1948,-1.1938,-1.1933,-1.1921,-1.1915,-1.1906,-1.1907,-1.1916,-1.1885,-1.1898,-1.1885,-1.1885,-1.1879,-1.188,-1.1839,-1.1872,-1.1872,-1.1872,-1.1873,0,-1.1995,-1.1977,-1.1977,-1.1965,-1.1946,-1.1948,-1.1929,-1.1926,-1.192,-1.1908,-1.1913,-1.1902,-1.1903,-1.1892,-1.1892,-1.1875,-1.1872,-1.1872,-1.1873,-1.1872,-1.1873,-1.1869,-1.1872,-1.1871,-1.1872,-1.1872,-1.1872,0,-1.1961,-1.196,-1.194,-1.1934,-1.1932,-1.1918,-1.1913,-1.1903,-1.1901,-1.1886,-1.1883,-1.1881,-1.1869,-1.1868,-1.1853,-1.1854,-1.1834,-1.1835,-1.1837,-1.1838,-1.1826,-1.1828,-1.1782,-1.1778,-1.1813,-1.1812,-1.1812,0,-1.1938,-1.1925,-1.1918,-1.1911,-1.1907,-1.1895,-1.1888,-1.1889,-1.1882,-1.1873,-1.1864,-1.1852,-1.1843,-1.1823,-1.182,-1.1809,-1.1812,-1.1797,-1.1811,-1.1812,-1.1814,-1.1816,-1.1816,-1.1795,-1.1794,-1.1794,-1.1794,0,-1.1899,-1.19,-1.189,-1.188,-1.1872,-1.1864,-1.1856,-1.185,-1.1851,-1.1843,-1.1831,-1.1824,-1.181,-1.1798,-1.1789,-1.1785,-1.179,-1.179,-1.1787,-1.1787,-1.1789,-1.179,-1.1832,-1.1791,-1.1791,-1.1791,-1.1792,-1.1792,-1.1872,-1.1862,-1.1856,-1.1845,-1.184,-1.1834,-1.1824,-1.1822,-1.1812,-1.1801,-1.1803,-1.179,-1.1784,-1.1771,-1.1767,-1.1757,-1.1762,-1.1757,-1.1756,-1.1755,-1.1755,-1.179,-1.1755,-1.1755,-1.1755,-1.1755,-1.1755,0,-1.1835,-1.1833,-1.1822,-1.1813,-1.1805,-1.181,-1.1803,-1.1796,-1.1785,-1.1778,-1.177,-1.1757,-1.1747,-1.1744,-1.1734,-1.1727,-1.1729,-1.1725,-1.1726,-1.1725,-1.175,-1.1754,-1.1723,-1.1723,-1.1723,-1.1723,-1.1723,-1.1723,-1.1816,-1.1799,-1.18,-1.1781,-1.1779,-1.1766,-1.1762,-1.1757,-1.1752,-1.1738,-1.173,-1.1728,-1.1724,-1.1714,-1.1705,-1.1705,-1.1702,-1.1696,-1.1697,-1.172,-1.1723,-1.1726,-1.1731,-1.1695,-1.1695,-1.1674,-1.1674,-1.1673]}]]